Location: Casilda
(33.0440°S, 61.1680°W)
Time: 15:52:02
(UTC-03:00)

ISS - Pass Details

Date: 21 September 2020
Orbit: 419 x 421 km, 51.6° (Epoch: 27 September)

Event Time Altitude Azimuth Distance (km) Brightness Sun altitude
Exits shadow 05:40:01 - 353° (N) 1,747 -0.8 -16.4°
Reaches altitude 10° 05:40:44 10° 360° (N) 1,504 -1.1 -16.3°
Maximum altitude 05:43:24 22° 52° (NE) 993 -1.4 -15.7°
Drops below altitude 10° 05:46:05 10° 104° (ESE) 1,521 0.5 -15.2°
Sets 05:48:31 0° 119° (ESE) 2,395 1.5 -14.7°
